Location: Morehouse Lake Observatory
(43.3628°N, 74.6770°W)
Time: 03:13:11
(UTC-05:00)

Envisat - Pass Details

Date: 29 October 2019
Orbit: 764 x 766 km, 98.1° (Epoch: 13 November)

Event Time Altitude Azimuth Distance (km) Brightness Sun altitude
Rises 19:34:48 0° 185° (S) 3,217 6.3 -18.8°
Reaches altitude 10° 19:37:13 10° 192° (SSW) 2,295 5.6 -19.2°
Maximum altitude 19:41:58 41° 262° (W) 1,110 4.3 -20.1°
Drops below altitude 10° 19:46:46 10° 332° (NNW) 2,310 5.8 -20.9°
Sets 19:49:13 0° 340° (NNW) 3,240 6.5 -21.4°
